Location: ???? ?????????
(31.1304°N, 31.7111°E)
Time: 18:18:37
(UTC+00:00)

Cosmos 967 Rocket - Pass Details

Date: 29 October 2020
Orbit: 953 x 984 km, 65.8° (Epoch: 30 November)

Event Time Altitude Azimuth Distance (km) Brightness Sun altitude
Rises 16:39:01 0° 201° (SSW) 3,673 7.9 -20.2°
Reaches altitude 10° 16:41:35 10° 200° (SSW) 2,726 7.1 -20.8°
Maximum altitude 16:47:58 79° 114° (ESE) 999 4.4 -22.1°
Enters shadow 16:51:55 25° 31° (NNE) 1,864 5.7 -23.0°
